Overview Statistics Trail Chart Weather Telemetry Raw packets
 

This is the latest recevied weather packets stored in our database for station/object KE5QKR. If no packets are shown the sender has not sent any weather packets the latest 10 day(s).

<< 78 79 80 81 82 83 84 >>
Time Temp. Humidity Pressure Rain* Wind** Luminosity Snow
1777404534 29.44° C 72% 1015.2 hPa 0 mm - 446 W/m² -
1777404230 30° C 71% 1015.3 hPa 0 mm - 246 W/m² -
1777403927 30.56° C 68% 1015.4 hPa 0 mm - 247 W/m² -
1777403626 30.56° C 67% 1015.4 hPa 0 mm - 509 W/m² -
1777403321 30.56° C 64% 1015.3 hPa 0 mm - 718 W/m² -
1777403015 30.56° C 65% 1015.6 hPa 0 mm - 736 W/m² -
1777402711 30.56° C 65% 1015.4 hPa 0 mm - 728 W/m² -
1777402405 30.56° C 66% 1015.4 hPa 0 mm - 734 W/m² -
1777402104 30.56° C 64% 1015.6 hPa 0 mm - 748 W/m² -
1777401799 30.56° C 65% 1015.6 hPa 0 mm - 727 W/m² -
1777401499 30.56° C 66% 1015.8 hPa 0 mm - 754 W/m² -
1777401195 30.56° C 67% 1015.7 hPa 0 mm - 754 W/m² -
1777400891 30.56° C 66% 1015.8 hPa 0 mm - 761 W/m² -
1777400587 30.56° C 65% 1015.7 hPa 0 mm - 758 W/m² -
1777400285 30.56° C 65% 1015.8 hPa 0 mm - 768 W/m² -
1777399980 30.56° C 62% 1016 hPa 0 mm - 764 W/m² -
1777399677 30.56° C 65% 1016.1 hPa 0 mm - 763 W/m² -
1777399374 30.56° C 65% 1015.9 hPa 0 mm - 778 W/m² -
1777399072 30.56° C 69% 1016.2 hPa 0 mm - 787 W/m² -
1777398769 30.56° C 66% 1016 hPa 0 mm - 796 W/m² -
1777398466 30.56° C 67% 1016.2 hPa 0 mm - 819 W/m² -
1777398163 30° C 66% 1016.2 hPa 0 mm - 809 W/m² -
1777397859 30.56° C 68% 1016.3 hPa 0 mm - 769 W/m² -
1777397554 30.56° C 69% 1016.3 hPa 0 mm - 765 W/m² -
1777397251 30° C 70% 1016.3 hPa 0 mm - 774 W/m² -

* Rain latest hour (hover to see other rain measurements)
** Current wind speed in m/s (hover to see current wind gust speed)